Weather History for Sheridan, WY

Change the Weather History Date:

Sunday, March 23, 2014

  Actual Average Record
Temperature  
Mean Temperature 22 °F 38 °F  
Max Temperature 35 °F 51 °F 76 °F (1993)
Min Temperature 9 °F 24 °F -16 °F (1965)
Degree Days  
Heating Degree Days 43 28  
Month to date heating degree days 765 714  
Since 1 July heating degree days 6515 6249  
Cooling Degree Days 0 0  
Month to date cooling degree days 0 0  
Year to date cooling degree days 0 0  
Moisture  
Dew Point 18 °F    
Average Humidity 70    
Maximum Humidity 83    
Minimum Humidity 56    
Precipitation  
Precipitation T in 0.04 in 0.57 in (1947)
Month to date precipitation 1.17 0.67  
Year to date precipitation 3.02 1.77  
Sea Level Pressure  
Sea Level Pressure 30.25 in    
Wind  
Wind Speed 8 mph (NW)    
Max Wind Speed 25 mph    
Max Gust Speed 30 mph    
Visibility 9 miles    
Events Snow    
T = Trace of Precipitation, MM = Missing Value Source: NWS Daily Summary

Daily Weather History Graph

Daily Weather History Graph

Search for Another Location

Airport:

Trip Planner

Search our weather history database for the weather conditions in past years. The results will help you decide how hot, cold, wet, or windy it might be!

Date:

Astronomy

Mar. 23, 2014 Rise Set
Actual Time 7:05 AM MDT 7:24 PM MDT
Civil Twilight 6:36 AM MDT 7:53 PM MDT
Nautical Twilight 6:01 AM MDT 8:28 PM MDT
Astronomical Twilight 5:26 AM MDT 9:03 PM MDT
Moon 1:55 AM MDT (3/23) 11:37 AM MDT (3/23)
Length of Visible Light 13h 17m
Length of Day
12h 18m
Waning Gibbous, 54% of the Moon is Illuminated
Mar 23
Waning Gibbous
Mar 23
Last Quarter
Mar 30
New
Apr 7
First Quarter
Apr 15
Full

Hourly Weather History & Observations

Time (MDT) Temp. Windchill Dew Point Humidity Pressure Visibility Wind Dir Wind Speed Gust Speed Precip Events Conditions
12:53 AM 10.0 °F - 5.0 °F 80% 30.40 in 10.0 mi Calm Calm - N/A   Clear
1:53 AM 10.9 °F - 6.1 °F 81% 30.36 in 10.0 mi Calm Calm - N/A   Clear
2:53 AM 9.0 °F - 5.0 °F 84% 30.32 in 10.0 mi Calm Calm - N/A   Clear
3:53 AM 9.0 °F 2.4 °F 3.9 °F 80% 30.30 in 10.0 mi NNW 3.5 mph - N/A   Clear
4:53 AM 10.0 °F 1.8 °F 5.0 °F 80% 30.26 in 10.0 mi South 4.6 mph - N/A   Clear
5:53 AM 10.9 °F 4.7 °F 6.1 °F 81% 30.24 in 10.0 mi South 3.5 mph - N/A   Clear
6:53 AM 12.0 °F - 7.0 °F 80% 30.21 in 10.0 mi Calm Calm - N/A   Partly Cloudy
7:53 AM 15.1 °F - 9.0 °F 77% 30.20 in 10.0 mi Calm Calm - N/A   Overcast
8:53 AM 17.1 °F 10.0 °F 12.0 °F 81% 30.20 in 10.0 mi NW 4.6 mph - N/A   Overcast
9:53 AM 21.0 °F 11.4 °F 15.1 °F 78% 30.21 in 10.0 mi NW 8.1 mph - N/A   Scattered Clouds
10:53 AM 24.1 °F 19.7 °F 16.0 °F 71% 30.22 in 10.0 mi West 3.5 mph - N/A   Partly Cloudy
11:53 AM 28.0 °F 20.0 °F 17.1 °F 63% 30.22 in 10.0 mi WNW 8.1 mph - N/A   Scattered Clouds
12:53 PM 30.9 °F 22.8 °F 17.1 °F 57% 30.22 in 10.0 mi WNW 9.2 mph - N/A   Overcast
1:53 PM 33.1 °F 23.4 °F 19.9 °F 59% 30.22 in 10.0 mi NNW 13.8 mph - N/A   Mostly Cloudy
2:53 PM 32.0 °F 22.5 °F 26.1 °F 79% 30.24 in 2.5 mi NW 12.7 mph - 0.00 in Snow Light Snow
3:04 PM 30.9 °F 21.2 °F 26.1 °F 82% 30.08 in 3.0 mi NW 12.7 mph - 0.00 in Snow Light Snow
3:41 PM 33.1 °F 22.2 °F 27.0 °F 78% 30.09 in 4.0 mi NW 17.3 mph - 0.00 in Snow Light Snow
3:53 PM 33.1 °F 20.6 °F 26.1 °F 75% 30.25 in 9.0 mi NW 23.0 mph 28.8 mph 0.00 in   Overcast
4:41 PM 33.1 °F 21.9 °F 25.0 °F 72% 30.13 in 10.0 mi NNW 18.4 mph - N/A   Overcast
4:53 PM 33.1 °F 22.2 °F 25.0 °F 72% 30.29 in 10.0 mi NNW 17.3 mph - N/A   Overcast
5:25 PM 32.0 °F 20.5 °F 24.1 °F 73% 30.15 in 10.0 mi NW 18.4 mph - N/A   Mostly Cloudy
5:53 PM 30.9 °F 21.7 °F 24.1 °F 76% 30.31 in 10.0 mi NW 11.5 mph - N/A   Scattered Clouds
6:09 PM 30.0 °F 20.5 °F 24.1 °F 79% 30.15 in 10.0 mi NNW 11.5 mph - N/A   Mostly Cloudy
6:39 PM 30.0 °F 22.4 °F 23.0 °F 75% 30.17 in 10.0 mi NNW 8.1 mph - N/A   Overcast
6:53 PM 30.0 °F 23.2 °F 23.0 °F 75% 30.33 in 10.0 mi North 6.9 mph - N/A   Overcast
7:44 PM 28.0 °F 20.8 °F 21.9 °F 78% 30.18 in 10.0 mi WNW 6.9 mph - N/A   Overcast
7:53 PM 28.0 °F 20.8 °F 21.9 °F 78% 30.34 in 10.0 mi West 6.9 mph - N/A   Overcast
8:06 PM 28.9 °F 23.9 °F 21.9 °F 75% 30.19 in 10.0 mi NW 4.6 mph - N/A   Overcast
8:53 PM 28.9 °F 25.2 °F 21.9 °F 75% 30.36 in 10.0 mi WNW 3.5 mph - N/A   Overcast
9:53 PM 28.0 °F 20.8 °F 23.0 °F 81% 30.34 in 10.0 mi WNW 6.9 mph - N/A   Overcast
10:30 PM 27.0 °F 21.6 °F 23.0 °F 85% 30.20 in 10.0 mi NW 4.6 mph - N/A   Scattered Clouds
10:53 PM 26.1 °F 20.5 °F 21.9 °F 84% 30.34 in 10.0 mi NNW 4.6 mph - N/A   Clear
11:26 PM 25.0 °F 19.3 °F 19.9 °F 81% 30.21 in 10.0 mi North 4.6 mph - N/A   Mostly Cloudy
11:53 PM 26.1 °F 16.2 °F 21.0 °F 81% 30.34 in 10.0 mi North 10.4 mph - N/A   Overcast